User: anonymous   Login
Location: Unspecified
(0.0000°N, 0.0000°E)
Time: 09:32:19
(UTC+00:00)
Language:

GONETS M 05 - Orbit

View from above orbital plane
View from above orbital plane
View from above satellite
View from above satellite

Ground track
Ground track

The orbit data is extracted from the following two-line orbital elements,

1 39249U 13048A   24113.94309257  .00000043  00000-0  23844-3 0  9994
2 39249  82.4768 112.8987 0017807 122.8788 237.4008 12.42893183481333
Epoch (UTC): 22 April 2024 22:38:03
Eccentricity: 0.0017807
inclination: 82.4768°
perigee height: 1480 km
apogee height: 1508 km
right ascension of ascending node: 112.8987°
argument of perigee: 122.8788°
revolutions per day: 12.42893183
mean anomaly at epoch: 237.4008°
orbit number at epoch: 48133

The dashed part of the orbit path shows where the satellite is in the earth's shadow,  

DLR